Flag for Panama Weather past 2 weeks in David, Panama

Now
86 °F

Partly sunny.


Feels Like: 95 °F
Forecast: 72 / 88 °F
Wind: 7 mph from South

Location: David Airport

Current Time: Sep 17, 2014 at 1:31:46 PM

Latest Report: Sep 17, 2014 at 12:00 PM


Visibility: N/A

Pressure: 29.89 "Hg

Humidity: 70%

Dew point: 75 °F

Location of DavidLocation

Historic Weather in David — Graph

°F

David temperature yesterday

Maximum temperature yesterday: 88 °F (at 1:00 PM)
Minimum temperature yesterday: 73 °F (at 7:00 AM)
Average temperature yesterday: 81 °F

Past Weeks' High & Low Weather Summary

 TemperatureHumidityPressure
High90 °F (Sep 5, 12:00 PM)100% (Sep 5, 7:00 AM)29.95 "Hg (Sep 5, 7:00 AM)
Low73 °F (Sep 5, 7:00 AM)59% (Sep 5, 12:00 PM)29.71 "Hg (Sep 11, 3:00 PM)
Average82 °F80%29.82 "Hg
* Reported Sep 2 1:00 PM — Sep 17 12:00 Noon, David, Weather by CustomWeather, © 2014

Note: Actual official high and low records may vary slightly from our data, if they occured in-between our weather recording intervals... More about our weather records

Advertising

David weather history for previous 24 hours

 ConditionsComfort  
Time TempWeatherWind HumidityBarometerVisibility
12:00 PM
Sep 17
86 °FPartly sunny.7 mph70%29.89 "HgN/A
11:00 AM86 °FPartly sunny.No wind70%29.89 "HgN/A
10:00 AM84 °FPartly sunny.No wind74%29.92 "HgN/A
9:00 AM81 °FPartly sunny.No wind79%29.92 "HgN/A
8:00 AM77 °FPartly sunny.No wind89%29.89 "HgN/A
7:00 AM73 °FBroken clouds.No wind94%29.89 "HgN/A
6:00 AMN/APassing clouds.No windN/A29.86 "HgN/A
10:00 PM
Sep 16
75 °FPartly cloudy.No wind94%29.89 "HgN/A
9:00 PM75 °FMild.No wind94%29.89 "HgN/A
8:00 PM75 °FMild.No wind94%29.86 "HgN/A
7:00 PM77 °FWarm.5 mph89%29.86 "HgN/A
6:00 PM79 °FWarm.12 mph84%29.83 "HgN/A
5:00 PM84 °FBroken clouds.7 mph74%29.80 "HgN/A
4:00 PM88 °FBroken clouds.12 mph66%29.80 "HgN/A
3:00 PM88 °FBroken clouds.12 mph62%29.80 "HgN/A
2:00 PM88 °FBroken clouds.9 mph66%29.83 "HgN/A
1:00 PM88 °FBroken clouds.3 mph62%29.83 "HgN/A
Weather by CustomWeather, © 2014

See weather overviewHow to use our weather pages